Location: Saddleback Butte
(34.6776°N, 117.8050°W)
Time: 02:22:22
(UTC-07:00)

Iridium 35 - Visible Passes

Search period start: 18 April 2014 00:00
Search period end: 28 April 2014 00:00
Orbit: 776 x 779 km, 86.4° (Epoch: 17 April)

Date Brightness Start Highest point End Pass type
(mag) Time Alt. Az. Time Alt. Az. Time Alt. Az.
18 Apr 6.3 03:39:52 10° NNE 03:44:40 37° E 03:47:48 19° SE visible
18 Apr 6.3 05:21:18 10° NW 05:25:03 21° W 05:28:13 12° WSW visible
19 Apr 7.3 03:07:15 10° NNE 03:10:57 19° E 03:13:45 13° ESE visible
19 Apr 5.5 04:46:58 10° NNW 04:51:46 39° W 04:54:11 25° SW visible
20 Apr 4.9 04:13:09 10° N 04:18:22 77° W 04:20:13 41° SSW visible
21 Apr 5.6 03:39:44 10° N 03:44:51 55° E 03:46:18 41° SE visible
21 Apr 6.7 05:22:29 10° NW 05:24:59 14° W 05:26:45 12° W visible
22 Apr 6.7 03:06:44 10° NNE 03:11:12 28° E 03:12:27 26° ESE visible
22 Apr 6.0 04:47:29 10° NNW 04:51:46 26° W 04:52:53 24° WSW visible
23 Apr 7.5 02:34:31 10° NE 02:37:26 15° ENE 02:38:38 14° E visible
23 Apr 5.2 04:13:24 10° NNW 04:18:25 51° W 04:19:04 48° WSW visible
24 Apr 4.9 03:39:44 10° N 03:44:58 83° E 03:45:18 77° SE visible
25 Apr 6.0 03:06:28 10° NNE 03:11:24 42° E 03:11:33 42° E visible
25 Apr 6.5 04:48:18 10° NW 04:51:42 18° W 04:52:00 18° W visible
26 Apr 7.0 02:33:42 10° NNE 02:37:43 22° E 02:37:49 22° E visible
26 Apr 5.7 04:13:47 10° NNW 04:18:16 34° W 04:18:16 34° W visible
27 Apr 7.7 02:02:21 10° ENE 02:03:53 11° ENE 02:04:07 11° ENE visible
27 Apr 5.1 03:39:53 10° N 03:44:35 63° WNW 03:44:35 63° WNW visible
